Theta_e
328 328 327 329 327 321 323 321 316 320 326 322 314 314 315 313 315 317 314 313 320 324 328 331 333 334 332 334 336 337 344 348 347 347 351 352 352 351 352 353 354 356 355 353 352 353 357 357 357 356 357 359 360 361 361 360 360 360 359 360 360 358 357
327 328 328 329 329 327 321 316 318 325 328 323 317 315 316 316 315 315 313 312 315 315 319 328 331 331 332 334 333 334 341 345 346 349 350 351 352 351 352 355 355 355 355 355 354 353 355 357 356 356 356 358 360 361 361 361 360 361 360 359 360 359 358
327 329 328 325 328 331 325 321 325 325 317 315 316 314 315 317 316 314 313 312 313 312 317 324 327 328 330 334 335 332 338 344 346 350 351 351 350 349 352 354 354 354 353 354 354 353 355 356 356 356 357 358 360 361 362 362 361 361 360 360 359 359 359
327 328 326 320 321 328 329 326 327 325 318 317 317 314 314 317 317 316 315 313 313 319 326 325 326 329 329 336 340 336 338 344 346 348 349 349 349 349 351 353 353 353 352 352 353 353 354 355 355 356 357 359 360 361 363 363 362 362 361 361 360 359 359
324 322 324 323 322 324 324 321 320 319 320 320 319 317 314 316 318 318 319 316 317 329 336 329 329 330 330 334 340 339 340 344 346 348 347 348 350 349 350 352 352 352 352 351 351 352 353 353 355 356 357 360 361 361 363 363 363 363 362 362 361 360 359
317 320 328 329 328 327 325 322 319 317 318 316 315 316 315 313 314 317 320 319 323 337 339 333 331 330 331 334 337 339 341 342 345 348 346 347 350 350 350 350 351 351 353 352 351 351 352 353 356 357 358 360 362 362 363 363 363 363 363 362 361 361 361
321 325 330 330 328 329 329 327 325 324 321 315 312 315 316 313 312 315 315 315 327 349 344 336 334 331 331 335 336 339 338 337 343 348 346 346 348 349 350 348 349 351 352 352 352 351 353 354 357 359 360 361 362 363 363 364 364 364 363 363 362 361 361
326 329 328 331 332 330 327 326 327 326 322 319 319 322 323 316 312 314 313 312 329 356 349 336 336 334 332 335 337 340 339 336 344 348 346 345 347 350 350 349 350 351 352 353 353 353 354 355 357 358 360 361 362 363 364 364 365 364 364 363 362 362 362
321 324 325 324 327 328 326 327 328 326 326 325 323 325 326 319 313 314 314 313 327 355 356 341 337 336 334 333 334 337 336 337 344 348 347 346 348 350 351 351 352 352 353 356 356 356 354 354 357 357 358 360 360 360 363 365 366 366 365 365 364 363 362
321 321 322 319 321 325 326 328 327 326 327 324 321 320 318 319 320 317 315 316 326 343 350 341 338 339 336 335 339 343 348 352 352 347 348 348 347 349 351 351 351 351 354 358 359 358 355 354 357 358 358 359 359 359 361 364 367 367 367 366 365 364 363
328 326 330 332 327 322 320 324 324 326 327 325 324 318 316 325 327 319 322 328 324 328 338 338 337 339 341 343 349 355 363 369 362 349 348 350 346 347 350 351 351 352 355 358 360 359 355 353 355 357 359 360 360 361 361 362 367 369 368 368 367 365 364
333 331 334 336 330 322 320 322 323 324 326 326 322 316 322 336 327 317 333 342 326 326 337 340 340 342 344 347 351 354 359 364 361 352 349 349 348 350 352 352 353 355 355 357 359 357 354 354 354 356 358 360 361 362 363 363 365 368 369 369 368 367 365
330 332 332 333 332 328 325 324 324 324 324 323 320 319 329 339 328 326 347 349 332 334 338 340 345 345 343 344 347 349 353 356 357 353 348 349 352 355 355 354 355 356 357 358 357 356 354 352 354 356 358 361 363 363 363 364 364 366 370 370 369 368 367
329 331 333 334 332 330 328 326 326 327 325 324 322 324 333 337 332 341 358 349 339 340 337 338 344 341 339 343 344 347 350 353 355 353 349 353 357 357 357 359 359 358 360 361 359 360 358 354 355 359 361 362 364 364 364 364 364 365 368 369 370 369 367
330 331 332 333 331 330 327 327 329 328 326 325 323 324 330 334 331 337 350 345 340 338 338 342 344 342 342 342 341 345 349 351 352 351 349 354 360 360 358 358 361 364 367 366 364 365 365 360 359 362 364 364 365 364 365 364 364 365 367 368 369 369 368
330 332 332 331 330 328 325 324 329 330 325 323 323 323 327 332 331 333 336 335 335 338 342 343 341 341 342 343 343 343 345 347 349 349 350 354 358 361 362 361 367 376 379 374 371 369 365 363 363 363 364 366 365 365 365 365 365 365 365 367 368 368 368
328 330 331 330 327 326 324 325 329 333 331 327 324 325 329 334 334 334 335 338 344 345 342 339 341 341 340 343 347 347 347 348 347 346 348 352 356 361 366 367 368 373 378 380 377 372 366 364 364 363 364 365 365 366 365 365 365 365 364 365 367 367 367
326 324 327 329 327 325 329 333 334 335 334 331 326 324 326 330 334 339 345 353 352 345 341 340 342 343 343 345 346 349 351 348 347 346 345 350 356 359 363 368 368 367 373 379 374 368 366 367 365 364 364 363 364 365 365 365 365 365 365 364 365 366 366
324 325 328 329 327 329 333 335 336 334 333 332 332 332 330 330 334 336 341 349 348 343 344 345 343 343 345 344 345 349 352 352 352 354 353 354 358 361 367 378 379 374 376 378 372 363 361 362 363 363 362 362 363 364 363 364 364 363 364 364 364 365 365
327 332 333 329 328 334 335 335 335 333 334 335 335 337 343 344 343 344 339 340 343 341 339 340 341 339 339 344 351 354 357 358 357 357 361 364 364 367 373 379 380 377 373 372 369 362 357 356 356 357 358 358 359 361 361 362 362 362 363 362 362 364 364
327 330 329 328 331 337 337 335 336 334 335 336 335 338 343 346 344 347 345 338 337 338 338 338 339 337 341 353 360 358 356 359 358 358 362 364 364 365 365 365 369 369 364 363 361 357 356 357 354 354 356 356 356 358 359 359 359 360 361 362 362 363 364
323 324 328 329 329 334 334 331 333 333 333 334 335 342 345 345 343 348 350 346 341 337 337 338 338 343 354 362 363 357 353 354 356 357 359 359 361 361 359 359 360 359 361 363 360 356 355 356 356 356 356 354 354 356 356 357 358 357 359 360 361 363 365
320 325 334 333 329 334 336 333 332 334 336 335 335 346 347 344 342 347 350 350 350 347 343 343 345 352 360 364 361 355 353 353 354 358 358 357 356 355 358 359 357 356 362 363 361 363 364 363 365 364 362 360 357 355 355 356 356 356 357 358 359 362 365
320 325 333 333 333 335 334 331 333 336 336 334 341 349 348 344 341 346 348 347 349 350 351 352 353 357 361 362 357 352 350 352 354 356 358 357 355 354 357 359 355 356 362 363 362 367 368 366 367 368 368 369 366 362 359 357 356 355 355 356 357 359 362
318 327 332 331 332 334 329 328 333 336 337 343 350 349 347 342 342 345 345 345 346 347 350 353 354 355 355 353 352 349 350 352 353 354 354 354 353 354 357 357 354 354 361 365 365 365 365 365 363 362 366 372 372 370 366 362 360 358 356 355 355 357 360
318 332 339 335 335 334 327 327 333 336 343 350 349 346 342 338 342 344 342 343 345 344 347 349 349 349 347 347 348 348 348 351 352 352 354 354 354 354 356 356 355 354 359 364 364 362 363 363 360 360 365 371 374 373 370 367 364 360 359 358 354 355 359
318 329 334 336 339 335 325 327 335 340 346 346 342 341 339 337 340 341 340 342 343 343 345 346 345 346 346 345 347 347 348 350 351 352 354 355 355 355 354 355 354 354 358 360 360 360 361 362 362 363 367 371 373 373 372 370 365 360 362 362 356 355 358
324 330 333 336 339 333 325 329 334 336 341 342 338 337 337 335 336 338 339 341 341 342 344 345 344 345 345 345 346 347 348 349 349 351 353 353 354 353 353 354 354 353 355 358 358 358 360 362 363 364 367 371 372 372 372 370 367 363 364 366 363 358 359
327 332 334 335 333 327 325 331 332 330 332 334 333 333 333 332 334 336 336 338 340 342 343 344 344 344 344 344 344 345 346 347 348 349 351 351 352 353 353 354 355 355 356 356 357 359 360 360 360 360 363 367 368 368 369 369 369 366 364 367 369 365 362
324 327 329 328 326 323 323 328 330 329 329 328 328 331 332 332 331 331 332 335 338 340 342 344 345 344 344 344 345 345 346 347 347 348 350 349 350 352 354 354 354 356 357 357 358 359 358 357 357 358 359 361 364 366 367 368 370 368 366 369 372 369 366
322 324 324 323 322 323 324 325 327 329 330 328 327 329 332 332 329 328 330 332 334 337 341 343 344 344 345 345 346 347 347 349 349 350 350 350 349 350 352 353 352 354 356 357 358 358 356 356 357 357 357 358 360 361 364 368 370 369 370 371 372 371 369
320 322 323 321 321 324 324 323 324 325 328 328 326 326 329 330 328 326 327 329 330 333 337 341 342 343 344 346 347 347 348 351 353 352 351 350 348 348 350 351 351 353 356 357 357 357 356 356 356 356 355 356 357 358 362 366 369 370 370 371 372 373 371
317 319 320 319 320 322 322 321 321 321 322 324 325 325 325 327 328 327 326 326 328 329 332 336 341 343 344 347 348 347 348 351 353 352 351 348 346 348 350 350 352 354 355 355 356 355 355 355 354 354 354 353 354 355 359 364 367 369 369 369 370 372 371
318 318 318 317 318 320 319 318 319 319 320 322 323 325 325 326 329 329 326 324 326 328 329 332 339 343 344 346 348 348 348 350 352 351 349 346 346 348 350 350 351 353 353 354 354 354 354 354 353 353 353 353 353 353 356 360 363 366 369 370 370 370 369
318 317 317 317 318 318 318 317 317 319 321 321 322 324 326 325 327 328 327 326 326 328 328 329 335 342 345 344 346 347 347 347 347 347 347 347 347 349 349 349 350 351 351 352 353 353 353 353 352 352 351 351 351 351 352 356 360 365 368 369 368 368 369
316 316 316 317 317 317 317 317 317 318 320 321 321 322 323 324 324 324 326 327 327 328 329 328 331 339 344 343 343 346 348 346 345 345 346 347 347 348 349 350 350 350 351 352 352 352 352 352 352 351 350 349 349 349 351 354 358 363 366 366 366 366 366
315 315 316 316 316 316 316 317 317 317 319 321 322 321 323 325 326 325 327 329 329 329 330 330 330 334 340 341 341 344 346 345 344 345 346 346 347 348 350 350 350 351 351 351 351 351 352 351 351 350 349 348 348 349 350 352 355 359 363 364 364 364 365
Wind_Speed
16 16 15 14 10 6 6 9 9 6 6 5 3 3 4 4 2 3 3 4 3 4 8 7 8 12 12 11 10 9 16 25 23 18 19 19 17 18 18 17 17 17 17 19 24 27 29 32 34 35 36 37 37 37 38 40 40 41 42 41 42 43 43
20 15 15 16 13 8 6 9 9 5 5 6 4 2 3 4 4 4 6 8 6 5 6 8 10 12 12 13 14 11 12 22 22 19 19 20 20 19 18 18 17 17 17 18 23 29 31 35 38 39 38 36 36 36 37 39 39 40 41 41 41 41 42
18 14 14 13 14 14 9 7 9 7 5 6 5 4 4 5 5 4 8 11 9 7 7 9 14 16 12 11 15 15 13 18 19 19 20 20 19 18 16 17 16 16 17 18 22 28 32 36 38 38 36 34 34 36 37 39 40 41 42 41 40 39 39
15 11 11 10 12 15 12 7 9 8 6 5 5 4 2 4 4 4 6 7 7 7 8 13 17 18 14 9 10 12 13 18 19 18 19 18 17 16 16 16 17 17 18 20 25 30 32 35 35 35 35 35 36 37 37 39 40 40 40 39 38 37 37
14 10 10 12 13 13 11 8 8 9 6 4 4 4 3 3 2 3 4 5 5 6 7 13 17 17 15 12 10 9 10 16 19 18 19 18 17 17 17 16 17 17 17 20 27 31 32 33 34 35 35 35 36 37 38 39 40 39 40 40 39 39 38
10 12 13 14 15 14 11 8 6 9 8 6 6 5 5 5 3 3 4 3 6 6 4 9 16 16 14 13 12 9 8 13 18 19 19 20 19 18 19 17 17 17 17 18 23 27 29 29 31 34 35 34 35 37 38 39 39 39 40 40 40 40 39
7 12 15 15 16 16 13 10 7 8 9 7 6 6 6 6 5 5 3 3 6 6 5 7 14 14 12 12 11 9 7 9 15 19 20 19 19 19 19 18 17 16 16 17 21 24 26 27 29 33 34 34 35 37 38 37 38 39 40 41 41 41 39
9 10 14 17 16 15 12 11 9 7 9 10 6 4 6 6 6 6 3 3 5 7 6 2 11 12 11 10 9 9 8 7 13 21 21 18 16 18 19 17 15 16 15 15 17 18 21 25 28 31 32 32 34 34 34 35 37 39 40 40 41 41 40
6 8 11 15 15 13 9 10 12 10 10 13 9 4 5 5 7 8 4 3 6 7 7 7 10 11 12 11 10 9 8 7 12 19 20 19 17 17 19 18 15 17 16 15 15 14 17 23 27 30 31 30 31 31 31 32 35 37 39 39 40 41 41
4 4 6 8 11 11 8 9 15 14 13 14 11 5 4 4 8 9 6 4 6 5 4 7 7 7 9 10 7 6 5 5 10 15 17 19 18 16 20 20 18 17 16 15 16 14 17 23 26 28 30 30 30 30 31 31 32 35 37 38 39 40 41
6 6 5 5 11 13 10 11 15 16 16 13 9 7 5 4 6 6 6 6 4 2 3 6 5 5 5 6 7 8 6 6 9 13 14 17 17 15 18 19 18 17 16 16 17 16 17 23 26 27 29 30 31 31 31 32 32 33 35 37 38 39 40
10 12 13 8 10 18 17 15 14 16 19 17 10 9 8 6 7 5 7 8 7 5 2 4 5 5 7 8 9 8 6 8 8 12 16 16 14 13 16 18 18 18 17 16 17 16 17 22 25 27 29 31 33 32 32 33 33 33 35 36 37 37 38
12 13 14 12 7 11 17 18 16 15 19 21 15 9 10 9 7 5 7 10 9 6 5 5 6 6 10 10 10 9 8 9 10 10 16 16 13 12 15 17 17 17 15 15 16 16 16 20 24 26 29 31 32 32 32 34 35 35 35 36 37 37 37
13 12 10 10 8 3 7 14 18 15 15 21 19 11 9 10 8 7 8 12 10 7 6 5 3 8 11 9 10 10 9 12 12 10 12 13 12 13 14 14 15 15 15 15 15 15 15 17 22 25 27 30 31 31 32 34 35 35 35 36 37 37 37
7 8 9 12 11 6 1 5 14 16 14 18 20 14 9 9 8 9 10 10 8 6 6 5 7 11 11 9 10 10 10 11 12 11 11 11 11 12 13 13 12 13 13 13 13 14 14 17 22 24 25 28 30 30 31 32 34 35 34 35 37 37 37
5 4 6 13 14 7 4 4 6 9 8 12 17 15 9 7 9 8 8 7 5 5 8 9 10 12 12 11 10 10 9 9 10 10 10 9 10 11 12 12 11 11 12 13 13 14 14 17 22 23 23 26 28 29 30 30 32 34 34 34 36 38 37
6 5 5 12 11 6 4 6 3 2 3 5 14 15 10 7 9 8 5 5 7 7 10 10 12 13 12 10 9 9 10 11 11 9 8 9 8 8 9 10 9 10 10 10 11 12 14 17 21 23 24 24 26 29 31 30 31 33 34 33 33 37 38
7 9 9 8 5 3 4 2 2 5 5 6 9 17 15 9 6 7 7 5 4 7 11 11 12 12 10 8 8 8 9 9 9 9 8 9 8 7 7 7 6 8 8 7 9 11 14 17 19 20 22 22 25 28 30 30 31 32 33 32 32 35 38
6 8 7 3 2 5 4 3 7 6 4 5 4 8 9 6 3 4 10 9 7 8 10 11 12 12 12 10 10 11 10 9 10 11 9 8 8 8 7 8 6 6 7 6 6 7 9 13 15 17 18 19 21 24 27 29 30 30 31 31 30 33 37
4 4 2 3 3 6 3 6 9 8 4 2 9 15 9 10 14 8 6 14 14 11 10 10 12 14 14 13 13 15 15 13 12 12 12 12 13 11 9 9 8 8 9 9 7 7 7 4 9 16 19 19 18 20 22 25 25 27 30 30 30 32 35
3 4 4 3 2 5 5 8 11 12 10 3 5 11 12 17 22 20 7 11 18 15 11 10 11 14 15 13 11 14 15 14 13 14 14 15 14 13 11 11 11 12 12 12 10 10 10 9 4 3 11 17 20 19 20 21 21 22 25 27 29 30 33
4 4 4 2 2 2 7 13 16 16 15 8 7 13 13 17 21 22 16 7 11 15 13 10 10 13 15 10 7 10 13 13 13 14 14 13 12 11 11 10 12 15 13 12 12 11 10 10 10 8 5 6 13 18 20 22 21 21 21 24 27 28 30
5 4 2 2 1 2 10 18 18 18 18 11 6 13 11 14 18 18 18 16 13 11 11 11 10 11 11 7 5 8 11 11 12 13 12 12 11 11 12 12 12 14 13 12 13 13 13 13 13 12 11 8 5 11 17 22 23 22 23 24 25 25 27
5 4 2 2 0 3 14 20 18 18 19 9 7 9 5 11 16 15 17 18 18 15 12 12 11 9 8 6 5 8 10 11 12 13 12 11 10 10 14 16 17 18 17 15 14 15 16 17 16 16 16 15 10 6 9 15 20 24 27 28 26 24 24
5 4 1 1 1 4 14 19 18 18 14 4 9 6 2 8 11 12 15 16 16 15 13 11 10 8 8 8 9 11 12 12 13 13 12 12 13 12 14 18 20 19 18 17 16 17 19 18 17 17 18 17 15 12 8 7 10 14 22 28 29 26 25
4 2 0 1 1 5 14 17 16 15 8 5 5 1 3 6 10 12 14 14 13 13 13 12 10 10 11 13 13 13 13 12 11 11 10 10 12 14 16 19 20 18 16 16 17 17 17 17 17 18 17 16 16 15 10 7 6 6 9 22 31 30 27
3 1 2 2 1 7 16 16 13 12 8 4 1 2 3 9 12 11 12 12 12 11 11 12 11 11 13 14 14 13 12 12 12 11 11 10 10 12 15 17 18 17 14 13 14 14 15 14 14 15 15 16 16 13 10 10 7 6 6 14 29 32 30
3 2 2 2 1 5 11 10 8 7 5 5 2 4 6 8 10 9 9 10 12 11 10 10 10 11 11 12 12 12 11 12 12 12 12 11 10 11 13 15 17 17 14 11 10 11 12 13 13 14 14 13 13 11 11 13 10 7 6 5 20 29 30
2 1 3 2 2 5 7 7 5 7 6 8 8 8 7 7 8 8 8 9 12 12 10 9 9 9 10 10 11 10 9 10 10 10 10 11 12 11 13 14 17 16 13 11 11 11 13 14 14 17 16 13 13 14 13 13 11 8 8 2 11 20 24
3 2 3 1 4 7 7 5 4 7 8 9 9 8 6 7 7 7 8 9 10 11 10 9 9 9 10 10 9 9 8 8 9 8 9 10 12 12 11 12 15 15 13 12 11 11 13 14 14 16 16 14 14 15 15 14 12 9 7 3 6 13 17
3 2 3 7 7 5 5 5 3 4 6 8 7 6 5 6 8 8 9 10 10 10 10 10 9 9 10 10 8 7 7 7 7 7 7 8 10 11 10 9 11 13 11 9 9 9 10 13 14 13 13 14 16 16 15 15 12 8 6 4 7 12 14
3 2 5 8 8 5 5 4 4 5 6 7 7 6 6 7 9 10 10 10 10 10 10 11 10 10 10 9 8 7 6 5 6 6 5 6 8 12 13 11 10 10 9 8 7 7 8 10 12 13 12 14 16 16 15 14 12 8 5 4 6 11 15
3 2 4 9 9 7 5 7 9 7 6 7 8 8 8 8 9 10 11 10 10 10 11 11 11 10 9 8 8 7 7 4 5 5 5 6 8 11 12 11 8 7 8 8 7 7 7 8 9 10 12 13 16 17 16 14 13 9 3 2 3 7 11
4 4 7 10 8 6 7 10 12 9 7 7 7 7 8 7 8 9 10 10 9 10 10 10 10 9 8 8 7 7 6 4 3 3 5 7 9 9 11 11 7 6 6 7 6 6 7 7 8 9 10 11 13 16 16 15 13 9 4 2 3 4 6
7 8 9 8 4 4 8 12 13 10 7 6 6 5 5 6 6 5 6 8 8 8 8 8 8 7 7 8 7 6 6 7 7 5 4 6 8 9 10 9 5 5 5 5 6 7 7 7 8 8 9 9 10 14 16 15 12 8 5 8 9 8 7
10 10 10 9 7 6 7 12 14 11 7 7 6 5 4 4 4 3 4 5 6 6 7 8 8 7 6 7 7 7 6 8 10 7 5 7 8 7 8 7 4 5 6 6 7 7 7 8 8 8 8 9 10 12 14 14 11 7 6 11 13 13 12
11 11 11 12 11 8 7 9 12 11 8 7 7 5 3 3 3 3 4 4 5 5 5 6 8 8 6 5 6 6 6 8 11 10 8 9 8 2 4 6 6 6 7 7 6 7 8 9 8 8 8 9 10 10 11 11 11 9 8 11 12 13 14
Wind_Direction
219 196 199 211 204 187 177 195 209 186 159 182 210 214 172 145 200 223 213 256 258 253 267 247 215 224 234 226 213 197 170 169 172 169 169 173 172 173 173 174 177 177 178 180 182 182 180 181 185 188 190 190 188 187 188 191 193 194 196 198 199 198 197
222 208 196 208 215 203 176 190 194 146 154 209 219 217 173 170 210 207 203 227 221 208 234 245 237 230 225 218 214 210 175 166 170 170 170 171 170 173 173 172 175 176 178 180 183 184 183 184 188 191 191 190 189 188 188 189 191 194 198 200 202 201 199
210 208 198 204 215 217 209 175 160 161 198 204 190 206 193 182 209 213 210 216 211 205 198 200 220 231 230 211 204 206 182 164 167 169 171 170 166 168 169 170 176 178 178 180 181 184 186 188 190 191 189 188 188 189 189 190 193 196 198 201 204 205 203
192 197 199 200 204 213 218 184 162 183 205 178 175 205 186 173 199 209 217 216 209 216 201 188 202 217 220 204 192 198 181 167 168 167 168 168 166 168 168 171 178 179 179 181 181 183 186 188 189 189 188 188 188 189 189 191 194 196 198 201 204 207 207
185 190 202 199 190 196 210 202 179 184 186 163 179 206 201 191 197 192 209 232 235 231 205 189 193 202 204 192 184 196 179 168 171 166 164 168 169 171 173 174 177 178 179 182 182 183 183 185 186 187 189 189 187 188 189 191 192 194 197 201 204 207 208
195 195 196 194 187 188 202 209 188 179 179 174 182 204 209 201 224 221 199 237 249 247 235 195 188 192 193 180 178 191 183 173 173 168 166 168 171 175 177 176 176 177 178 181 182 181 180 181 183 186 188 189 188 189 190 190 190 193 196 199 203 206 208
239 209 191 182 183 187 198 214 206 179 179 181 180 192 193 190 229 247 237 267 262 263 267 205 180 178 174 163 166 180 190 183 174 171 171 168 168 175 180 176 174 176 177 179 179 177 177 180 182 184 186 188 189 190 190 189 190 193 196 199 202 205 207
274 246 196 174 177 185 196 213 214 197 188 185 177 173 171 174 207 223 237 267 262 287 312 137 146 147 142 148 161 174 190 189 169 169 170 165 164 173 180 178 173 176 176 175 177 176 177 181 184 186 188 190 191 190 189 189 191 194 196 199 201 204 206
251 246 195 172 176 186 195 205 209 217 201 180 176 180 164 173 201 195 188 246 253 283 338 50 99 120 133 155 172 176 182 175 163 166 166 166 166 168 174 174 170 174 176 174 177 177 178 183 185 188 191 194 195 194 193 190 191 195 197 199 200 202 205
230 229 192 175 177 183 196 198 200 217 215 187 176 176 163 188 208 192 181 226 261 286 14 60 81 106 136 160 156 142 149 135 151 166 166 168 170 165 167 170 167 170 173 175 176 176 178 182 183 186 190 194 198 200 198 194 192 194 197 199 201 202 204
246 259 271 207 174 173 191 200 195 207 218 206 176 165 184 185 183 196 196 184 206 250 89 100 123 119 114 124 101 90 92 92 131 166 170 169 170 164 163 165 165 167 169 173 175 173 177 181 182 184 187 192 197 199 198 195 193 194 196 199 202 203 204
258 267 289 279 189 175 180 195 202 199 206 216 198 174 189 162 139 205 220 158 159 220 187 149 183 150 105 105 100 95 100 91 114 161 170 166 162 158 159 161 164 166 167 170 173 173 176 180 183 187 189 193 196 196 195 194 195 195 196 198 201 203 204
289 277 282 287 246 182 174 189 210 203 195 209 214 185 172 156 143 208 209 153 156 212 213 215 219 158 121 119 112 100 98 89 90 136 154 150 145 148 154 158 161 163 163 167 172 175 177 180 184 190 193 194 194 193 193 194 196 197 196 197 199 202 203
295 291 287 291 293 250 169 186 208 218 199 199 211 208 172 158 163 193 178 158 171 193 189 205 184 127 120 117 110 100 97 94 88 101 123 125 132 144 149 154 161 163 165 169 172 174 176 182 188 192 193 192 192 192 192 194 196 198 197 197 198 200 202
293 309 318 302 289 279 275 188 202 219 214 195 202 215 194 157 172 191 166 156 181 180 147 126 97 99 95 84 88 91 95 103 103 105 109 108 118 132 141 150 156 159 164 168 171 176 179 185 191 191 189 188 189 191 193 195 197 198 198 198 198 200 202
310 325 311 290 291 292 290 274 214 214 226 200 193 205 210 170 172 182 149 144 184 153 115 101 87 85 80 72 72 73 73 78 90 107 119 119 122 130 138 145 150 154 160 165 170 179 183 187 191 191 185 183 188 192 194 196 197 199 201 200 199 200 201
321 344 296 276 300 325 270 253 219 126 332 249 192 191 213 191 166 171 161 180 198 149 109 97 86 79 76 76 74 74 74 65 62 77 97 105 110 119 127 136 145 149 151 157 166 175 182 186 190 191 186 182 186 192 195 197 197 200 203 204 200 200 201
309 329 311 285 305 298 237 255 63 75 11 301 199 183 203 210 162 157 162 173 180 137 117 111 103 92 87 86 82 83 86 77 65 63 73 92 103 104 104 114 137 147 144 142 148 157 170 180 184 188 189 188 189 192 195 197 198 200 204 205 203 201 201
293 321 321 304 278 253 238 50 38 40 9 332 47 123 181 235 316 178 160 130 88 93 108 111 107 100 93 80 65 60 63 70 72 59 50 74 96 94 82 73 77 98 104 104 111 125 153 178 188 189 192 193 193 194 195 197 200 202 203 206 205 202 201
302 330 294 222 248 282 321 49 30 6 334 324 53 60 47 356 347 330 170 133 104 84 86 97 102 100 89 71 54 49 50 55 65 62 55 61 68 67 64 59 58 68 75 76 78 79 82 124 192 200 201 199 196 198 200 201 203 204 204 206 206 202 200
342 332 286 255 301 325 2 21 1 342 328 312 94 71 29 6 1 356 4 123 117 104 93 92 98 93 80 65 48 45 47 47 52 58 62 63 63 61 53 47 43 46 54 59 59 55 48 42 47 200 210 206 202 202 204 207 210 209 207 208 208 203 200
337 326 300 287 295 350 3 349 337 328 322 327 88 83 34 0 357 1 2 35 99 110 112 105 96 84 73 64 48 42 45 45 46 52 55 57 62 61 53 49 39 28 31 45 48 41 28 15 10 7 342 242 217 210 208 209 212 215 216 214 211 206 201
307 315 323 311 259 28 353 339 337 331 317 314 72 78 38 347 341 359 12 14 26 66 95 94 87 83 77 73 54 43 44 42 44 50 49 45 47 48 49 50 35 19 25 38 42 45 39 20 7 3 360 346 284 230 217 210 209 213 220 221 217 211 205
292 290 310 334 55 28 347 337 336 325 310 312 63 72 22 329 334 359 21 23 21 32 55 70 72 77 84 85 63 49 48 45 44 46 44 37 32 35 43 42 28 21 26 28 32 44 41 24 13 10 6 1 350 309 245 220 212 213 218 220 220 218 212
305 306 306 328 86 19 348 339 335 324 313 4 66 78 262 311 340 6 22 28 28 26 37 56 61 60 64 66 59 51 48 49 47 41 38 31 21 25 43 43 27 17 17 20 31 42 35 19 9 3 359 357 351 340 315 263 239 230 224 219 217 216 214
297 309 4 328 3 356 344 339 342 349 7 62 63 80 263 337 7 16 17 26 32 28 35 48 51 51 50 48 49 45 40 47 49 41 37 29 15 23 41 41 25 12 11 20 32 36 26 14 3 355 353 350 339 333 334 326 314 309 257 223 213 211 210
311 339 12 36 69 332 339 349 3 18 46 83 326 327 15 16 21 17 11 21 27 28 40 45 41 45 46 42 43 38 33 38 38 32 33 25 13 26 40 34 19 8 4 14 29 28 17 10 3 354 349 341 331 332 355 3 355 352 318 231 211 206 204
18 45 7 33 197 312 343 12 20 16 63 96 39 22 30 21 20 17 8 12 16 21 39 47 42 42 42 42 41 33 30 34 30 25 26 19 12 28 37 26 13 4 355 2 27 32 22 18 13 2 354 349 347 356 8 8 8 19 8 252 211 203 199
349 201 224 236 280 325 1 34 11 348 34 69 54 39 31 16 16 19 8 4 9 12 22 37 43 41 41 46 44 31 28 34 30 25 24 14 8 20 28 20 9 360 352 360 21 31 26 23 19 11 8 10 11 6 2 2 6 14 17 350 210 202 197
325 270 235 310 358 357 2 16 4 352 14 38 45 47 36 8 6 15 9 3 6 9 14 24 32 35 37 41 38 28 25 28 27 26 22 10 2 5 15 14 4 357 355 4 22 31 22 13 10 9 9 12 11 5 4 7 5 3 15 54 179 190 190
358 342 344 349 352 350 339 334 349 17 26 29 33 45 45 16 5 9 9 4 2 7 14 18 21 32 37 34 28 24 21 23 26 22 14 4 351 343 348 357 354 350 352 4 25 31 17 8 8 10 12 14 10 7 8 10 9 7 16 60 140 162 168
354 324 325 329 318 291 288 323 4 33 40 30 18 22 38 31 13 3 4 7 4 3 8 12 15 23 28 25 20 11 6 19 27 10 360 359 338 325 327 338 344 347 350 360 21 25 15 16 18 16 19 20 13 8 8 8 10 16 17 39 102 140 152
315 300 351 357 342 315 326 13 20 17 17 17 11 11 20 31 24 5 357 1 4 1 0 4 10 14 13 12 10 354 345 10 28 360 338 331 318 315 323 330 338 359 5 7 21 24 17 23 24 14 15 18 11 8 8 4 5 16 24 19 72 127 148
312 325 3 14 359 320 338 5 1 353 358 9 12 7 3 16 31 15 354 349 355 359 355 353 2 8 358 353 353 340 333 350 3 335 319 316 310 308 317 325 340 13 15 9 15 15 12 25 29 20 16 14 6 4 7 4 2 10 40 92 93 118 138
302 311 335 356 345 312 332 338 330 329 346 355 357 358 353 3 25 19 348 337 342 349 345 339 347 355 345 338 341 340 339 340 330 318 313 312 308 307 308 309 325 356 358 9 19 11 13 27 31 25 18 7 357 358 4 7 5 9 61 90 89 90 94
303 307 319 324 314 310 321 315 309 312 322 322 319 321 324 337 346 337 324 322 322 328 330 324 324 333 341 342 341 343 342 327 317 319 318 298 291 308 328 334 351 6 9 24 24 17 32 43 40 36 24 5 356 358 1 8 14 25 77 94 90 88 91
303 302 307 306 299 296 299 296 296 300 302 296 294 296 300 317 330 330 327 313 298 299 306 305 309 323 336 335 327 332 336 319 313 322 322 303 289 304 13 15 27 30 31 36 27 28 50 54 43 41 33 12 7 10 8 13 26 44 78 94 91 87 90